GW0206 Weather Reports


time (UTC)temp
C
wind
direction
speed
KPH
gust
KPH
rain 1hr
cm
rain 24hr
cm
rain mn
cm
humidity
%
barometer
mb
20260504214005 22 49 12.9 30.6 0.00 0.00 0.00 55 1005.4
20260504213503 22 82 17.7 30.6 0.00 0.00 0.00 52 1005.4
20260504213007 22 67 11.3 32.2 0.00 0.00 0.00 53 1005.4
20260504212506 22 52 16.1 35.4 0.00 0.00 0.00 54 1005.3
20260504212004 22 73 20.9 35.4 0.00 0.00 0.00 54 1005.5
20260504211513 22 56 17.7 35.4 0.00 0.00 0.00 55 1005.5
20260504211003 22 63 14.5 35.4 0.00 0.00 0.00 56 1005.5
20260504210503 22 27 16.1 35.4 0.00 0.00 0.00 56 1005.6
20260504210018 22 59 17.7 41.8 0.00 0.00 0.00 57 1005.5
20260504205507 21 62 20.9 41.8 0.00 0.00 0.00 55 1005.6
20260504205006 22 74 22.5 38.6 0.00 0.00 0.00 53 1005.7
20260504204509 22 37 17.7 33.8 0.00 0.00 0.00 57 1005.8
20260504204007 21 32 16.1 30.6 0.00 0.00 0.00 55 1005.6
20260504203507 21 28 12.9 29.0 0.00 0.00 0.00 55 1005.6
20260504203028 22 5 8.0 27.4 0.00 0.00 0.00 55 1005.6
20260504202502 22 69 16.1 32.2 0.00 0.00 0.00 54 1005.8
20260504202001 22 57 17.7 32.2 0.00 0.00 0.00 53 1005.9
20260504201508 22 31 16.1 43.5 0.00 0.00 0.00 53 1005.8
20260504201003 22 75 19.3 43.5 0.00 0.00 0.00 53 1005.8
20260504200504 22 62 12.9 29.0 0.00 0.00 0.00 53 1005.9
20260504200016 22 55 16.1 30.6 0.00 0.00 0.00 53 1006.0
20260504195504 22 42 14.5 30.6 0.00 0.00 0.00 55 1006.2
20260504195004 22 62 12.9 29.0 0.00 0.00 0.00 54 1006.1
20260504194522 22 57 12.9 41.8 0.00 0.00 0.00 56 1006.2
20260504194005 21 16 17.7 41.8 0.00 0.00 0.00 54 1006.2
20260504193506 21 45 12.9 37.0 0.00 0.00 0.00 55 1006.3
20260504193017 21 53 16.1 37.0 0.00 0.00 0.00 55 1006.6
20260504192506 21 67 14.5 35.4 0.00 0.00 0.00 57 1006.6
20260504192013 21 19 16.1 35.4 0.00 0.00 0.00 56 1006.7
20260504191513 21 41 17.7 37.0 0.00 0.00 0.00 56 1006.8
20260504191002 21 59 17.7 38.6 0.00 0.00 0.00 55 1006.7
20260504190503 21 39 17.7 38.6 0.00 0.00 0.00 55 1006.8
20260504190011 21 51 19.3 37.0 0.00 0.00 0.00 54 1006.9
20260504185504 21 360 14.5 37.0 0.00 0.00 0.00 55 1006.8
20260504185007 21 24 19.3 40.2 0.00 0.00 0.00 55 1006.9
20260504184523 21 46 11.3 40.2 0.00 0.00 0.00 59 1007.0
20260504184011 21 32 20.9 35.4 0.00 0.00 0.00 55 1007.0
20260504183508 21 48 17.7 32.2 0.00 0.00 0.00 54 1007.0
20260504183020 21 53 16.1 32.2 0.00 0.00 0.00 56 1007.1
20260504182512 21 103 17.7 30.6 0.00 0.00 0.00 56 1007.0
20260504182003 20 38 16.1 30.6 0.00 0.00 0.00 58 1007.0
20260504181517 21 51 16.1 29.0 0.00 0.00 0.00 56 1007.2
20260504181012 20 85 14.5 29.0 0.00 0.00 0.00 57 1007.1
20260504180513 20 67 16.1 29.0 0.00 0.00 0.00 56 1007.2
20260504180014 20 5 12.9 27.4 0.00 0.00 0.00 56 1007.2
20260504175509 20 71 16.1 27.4 0.00 0.00 0.00 56 1007.5
20260504175005 20 69 17.7 29.0 0.00 0.00 0.00 56 1007.4
20260504174513 20 339 19.3 29.0 0.00 0.00 0.00 57 1007.6
20260504174003 20 59 12.9 33.8 0.00 0.00 0.00 54 1007.6
20260504173502 20 92 19.3 33.8 0.00 0.00 0.00 57 1007.7
20260504173005 20 15 11.3 29.0 0.00 0.00 0.00 54 1007.7
20260504172502 20 24 11.3 27.4 0.00 0.00 0.00 58 1007.7
20260504172003 20 28 12.9 25.7 0.00 0.00 0.00 54 1007.8
20260504171505 20 355 12.9 29.0 0.00 0.00 0.00 55 1007.8
20260504171003 20 44 14.5 29.0 0.00 0.00 0.00 55 1007.8
20260504170503 19 65 14.5 30.6 0.00 0.00 0.00 59 1007.9
20260504151005 16 360 9.7 22.5 0.00 0.00 0.00 61 1008.9
20260504150503 16 26 12.9 22.5 0.00 0.00 0.00 60 1008.9
20260504141006 15 29 8.0 20.9 0.00 0.00 0.00 62 1009.3
20260504140504 15 27 11.3 22.5 0.00 0.00 0.00 61 1009.3
20260504130504 13 63 11.3 20.9 0.00 0.00 0.00 62 1009.7
20260504110508 8 51 6.4 16.1 0.00 0.00 0.00 70 1009.5
20260504100514 8 347 4.8 12.9 0.00 0.00 0.00 69 1009.2
20260504082005 10 23 8.0 17.7 0.00 0.00 0.00 63 1009.9
20260504081518 10 38 6.4 17.7 0.00 0.00 0.00 63 1010.0
20260504081005 10 45 9.7 17.7 0.00 0.00 0.00 63 1010.1
20260504080502 10 24 9.7 17.7 0.00 0.00 0.00 62 1010.1
20260504050509 8 17 3.2 8.0 0.00 0.00 0.00 69 1012.2
20260504050016 8 30 4.8 8.0 0.00 0.00 0.00 69 1012.3
20260504045507 8 32 3.2 8.0 0.00 0.00 0.00 68 1012.4
20260504045007 8 17 3.2 8.0 0.00 0.00 0.00 68 1012.4
20260504044518 9 28 3.2 9.7 0.00 0.00 0.00 68 1012.4
20260504044007 9 37 4.8 9.7 0.00 0.00 0.00 67 1012.4
20260504043507 9 42 3.2 8.0 0.00 0.00 0.00 67 1012.4
20260504043038 9 31 3.2 9.7 0.00 0.00 0.00 67 1012.4
20260504042504 9 19 3.2 11.3 0.00 0.00 0.00 66 1012.4
20260504042008 10 40 4.8 11.3 0.00 0.00 0.00 66 1012.4
20260504041535 10 42 3.2 9.7 0.00 0.00 0.00 66 1012.4
20260504041009 10 59 4.8 9.7 0.00 0.00 0.00 66 1012.5
20260504040509 10 33 4.8 12.9 0.00 0.00 0.00 66 1012.7
20260504040018 10 58 6.4 12.9 0.00 0.00 0.00 66 1012.7
20260504035508 10 42 4.8 11.3 0.00 0.00 0.00 66 1012.7
20260504035005 10 15 4.8 12.9 0.00 0.00 0.00 66 1012.7
20260504034519 10 28 4.8 12.9 0.00 0.00 0.00 66 1012.8
20260504034010 10 51 4.8 12.9 0.00 0.00 0.00 66 1012.8
20260504033506 10 69 6.4 12.9 0.00 0.00 0.00 66 1012.8
20260504033019 10 65 6.4 12.9 0.00 0.00 0.00 66 1012.8
20260504032507 10 50 4.8 9.7 0.00 0.00 0.00 65 1012.7
20260504032011 10 28 4.8 8.0 0.00 0.00 0.00 65 1012.8
20260504031526 10 50 4.8 12.9 0.00 0.00 0.00 65 1012.8
20260504031006 10 59 6.4 12.9 0.00 0.00 0.00 65 1012.9
20260504030512 10 42 4.8 11.3 0.00 0.00 0.00 65 1012.8
20260504030032 10 76 4.8 12.9 0.00 0.00 0.00 64 1012.9
20260504025509 10 63 8.0 14.5 0.00 0.00 0.00 64 1012.9
20260504025006 10 82 8.0 16.1 0.00 0.00 0.00 64 1013.0
20260504024521 10 57 6.4 25.7 0.00 0.00 0.00 63 1013.0
20260504024008 10 72 8.0 25.7 0.00 0.00 0.00 63 1013.1
20260504023507 10 65 14.5 25.7 0.00 0.00 0.00 63 1013.2
20260504023003 10 77 9.7 25.7 0.00 0.00 0.00 63 1013.3
20260504022502 10 74 14.5 25.7 0.00 0.00 0.00 62 1013.3
20260504022002 10 76 6.4 19.3 0.00 0.00 0.00 61 1013.4
20260504021503 10 83 9.7 19.3 0.00 0.00 0.00 60 1013.3
20260504021001 10 49 11.3 22.5 0.00 0.00 0.00 60 1013.2
20260504020501 10 76 9.7 24.1 0.00 0.00 0.00 59 1013.2
20260504020003 10 98 11.3 32.2 0.00 0.00 0.00 58 1013.2
20260504015503 10 74 14.5 32.2 0.00 0.00 0.00 57 1013.1
20260504015004 10 80 9.7 17.7 0.00 0.00 0.00 57 1012.9
20260504014505 10 59 6.4 14.5 0.00 0.00 0.00 57 1012.9
20260504014004 10 36 6.4 14.5 0.00 0.00 0.00 56 1012.8
20260504013502 10 47 4.8 12.9 0.00 0.00 0.00 56 1012.6
20260504013004 10 55 4.8 14.5 0.00 0.00 0.00 56 1012.7
20260504012502 10 50 8.0 14.5 0.00 0.00 0.00 55 1012.7
20260504012003 10 61 6.4 14.5 0.00 0.00 0.00 55 1012.7
20260504011510 10 43 6.4 14.5 0.00 0.00 0.00 56 1012.7
20260504011001 10 36 6.4 14.5 0.00 0.00 0.00 55 1012.7
20260504010503 10 63 6.4 11.3 0.00 0.00 0.00 55 1012.8
20260504010003 10 26 6.4 11.3 0.00 0.00 0.00 55 1012.8
20260504005503 11 53 4.8 11.3 0.00 0.00 0.00 55 1012.7
20260504005004 11 42 4.8 14.5 0.00 0.00 0.00 55 1012.8
20260504004503 11 57 6.4 14.5 0.00 0.00 0.00 54 1012.7
20260504004002 11 36 6.4 14.5 0.00 0.00 0.00 54 1012.8
20260504003506 11 62 6.4 14.5 0.00 0.00 0.00 53 1012.8
20260504003005 11 55 8.0 14.5 0.00 0.00 0.00 53 1012.7
20260504002502 11 32 6.4 14.5 0.00 0.00 0.00 54 1012.7
20260504002004 12 38 6.4 17.7 0.00 0.00 0.00 53 1012.8
20260504001504 12 49 8.0 17.7 0.00 0.00 0.00 52 1012.8
20260504001002 12 51 8.0 16.1 0.00 0.00 0.00 51 1012.8
20260504000502 12 57 8.0 16.1 0.00 0.00 0.00 51 1012.8
20260504000004 12 74 8.0 16.1 0.00 0.00 0.00 51 1012.8
20260503235502 12 66 8.0 16.1 0.00 0.00 0.00 50 1012.9
20260503235003 12 88 4.8 16.1 0.00 0.00 0.00 51 1013.0
20260503234505 12 105 6.4 17.7 0.00 0.00 0.00 50 1013.0
20260503234003 12 74 11.3 20.9 0.00 0.00 0.00 48 1013.0
20260503233503 13 86 8.0 24.1 0.00 0.00 0.00 49 1013.0
20260503233003 13 64 14.5 27.4 0.00 0.00 0.00 47 1013.0
20260503232505 13 41 9.7 27.4 0.00 0.00 0.00 47 1013.0
20260503232003 13 44 12.9 25.7 0.00 0.00 0.00 47 1013.1
20260503231503 13 116 11.3 29.0 0.00 0.00 0.00 47 1013.1
20260503231003 13 70 9.7 29.0 0.00 0.00 0.00 47 1013.1
20260503230503 13 71 14.5 29.0 0.00 0.00 0.00 45 1013.0
20260503230004 14 110 12.9 29.0 0.00 0.00 0.00 45 1013.0
20260503225505 14 38 16.1 27.4 0.00 0.00 0.00 46 1012.9
20260503225005 14 76 16.1 33.8 0.00 0.00 0.00 46 1013.0
20260503224506 13 57 16.1 33.8 0.00 0.00 0.00 46 1013.0
20260503224002 13 44 17.7 40.2 0.00 0.00 0.00 46 1013.0
20260503223503 13 83 17.7 40.2 0.00 0.00 0.00 46 1012.9
20260503223008 13 65 12.9 24.1 0.00 0.00 0.00 46 1013.1
20260503222503 13 131 12.9 27.4 0.00 0.00 0.00 47 1013.1
20260503222003 13 101 12.9 27.4 0.00 0.00 0.00 47 1013.2
20260503221503 14 59 12.9 29.0 0.00 0.00 0.00 46 1013.1
20260503221003 14 69 17.7 29.0 0.00 0.00 0.00 45 1013.1
20260503220503 14 98 14.5 29.0 0.00 0.00 0.00 46 1013.1
20260503220007 14 40 14.5 29.0 0.00 0.00 0.00 44 1013.2
20260503215502 14 82 16.1 32.2 0.00 0.00 0.00 44 1013.1
20260503215002 15 101 19.3 32.2 0.00 0.00 0.00 43 1013.1
20260503214504 15 65 12.9 25.7 0.00 0.00 0.00 46 1013.2